Le nostre stazioni meteo in Italia

Pubblicità
Il mio iltempo24.it
Capo Caccia, Italia (16522): Temperatura & dewpoint: 01.12.2019 11:00:00 - 07.12.2019 11:00:00 (CET)Capo Caccia, Italia (16522): velocità del vento: 01.12.2019 11:00:00 - 07.12.2019 11:00:00 (CET)Capo Caccia, Italia (16522): direzione del vento: 01.12.2019 11:00:00 - 07.12.2019 11:00:00 (CET)Capo Caccia, Italia (16522): reduced air pressure: 01.12.2019 11:00:00 - 07.12.2019 11:00:00 (CET)Capo Caccia, Italia (16522): visibility: 01.12.2019 11:00:00 - 07.12.2019 11:00:00 (CET)Capo Caccia, Italia (16522): ore di luce: 01.12.2019 11:00:00 - 07.12.2019 11:00:00 (CET)
Data & Tempo tt [°C] td [°C] ff [km/h] ff [kn] dd ppp [hPa] vv [km] sd [min]
07.12.2019 11:00:00 16,0 13,0 8 4 ENE 1022,6 20 0
07.12.2019 10:00:00 14,6 12,1 0 0 N 1022,3 20 0
07.12.2019 09:00:00 14,4 12,5 9 5 O 1022,3 20 18
07.12.2019 08:00:00 14,4 12,7 5 3 ONO 1022,3 20 0
07.12.2019 07:00:00 14,0 12,1 5 3 OSO 1022,4 20 0
07.12.2019 06:00:00 14,8 13,2 13 7 O 1022,3 20 -
07.12.2019 05:00:00 15,0 13,4 15 8 O 1022,3 20 -
07.12.2019 04:00:00 15,0 13,4 16 9 SO 1022,3 20 -
07.12.2019 03:00:00 14,8 13,5 9 5 NNE 1022,0 20 -
07.12.2019 02:00:00 14,8 13,5 9 5 E 1022,0 20 -
07.12.2019 01:00:00 15,0 13,4 15 8 NNO 1022,3 20 -
07.12.2019 00:00:00 15,0 13,4 11 6 NNO 1022,3 20 -
06.12.2019 23:00:00 15,0 13,2 9 5 ONO 1022,3 20 -
06.12.2019 22:00:00 15,0 13,0 8 4 SSO 1022,3 20 -
06.12.2019 21:00:00 15,0 13,0 9 5 ONO 1022,3 20 -
06.12.2019 20:00:00 15,0 13,4 8 4 ESE 1022,1 20 -
06.12.2019 19:00:00 15,0 13,0 8 4 SSO 1021,6 20 0
06.12.2019 18:00:00 15,0 13,0 8 4 SO 1021,5 20 0
06.12.2019 17:00:00 15,0 13,0 8 4 SSO 1021,5 20 0
06.12.2019 16:00:00 15,4 13,7 11 6 SSE 1021,8 20 18
06.12.2019 15:00:00 15,8 14,1 16 9 S 1021,8 20 48
06.12.2019 14:00:00 15,6 14,0 13 7 S 1022,3 20 30
06.12.2019 13:00:00 15,6 13,6 21 11 S 1022,2 20 30
06.12.2019 12:00:00 15,2 13,1 18 10 SSE 1023,6 20 60
06.12.2019 11:00:00 14,8 12,8 21 11 S 1023,4 20 60
06.12.2019 10:00:00 14,6 12,5 18 10 SSE 1023,3 20 36
06.12.2019 09:00:00 14,0 12,2 18 10 S 1023,4 20 0
06.12.2019 08:00:00 14,0 12,1 21 11 SSE 1022,4 20 0
06.12.2019 07:00:00 14,0 12,3 18 10 S 1022,4 10 0
06.12.2019 06:00:00 - - - - - - - -
06.12.2019 05:00:00 14,4 12,6 18 10 S 1022,3 20 -
06.12.2019 04:00:00 14,2 12,6 21 11 S 1022,4 20 -
06.12.2019 03:00:00 14,0 12,3 16 9 SSE 1022,4 20 -
06.12.2019 02:00:00 14,0 12,1 21 11 SSE 1022,4 10 -
06.12.2019 01:00:00 14,0 12,1 22 12 SSE 1022,4 10 -
06.12.2019 00:00:00 14,2 12,2 24 13 S 1022,4 10 -
05.12.2019 23:00:00 14,6 13,0 28 15 SSE 1021,8 10 -
05.12.2019 22:00:00 14,6 12,8 22 12 SE 1021,5 10 -
05.12.2019 21:00:00 14,8 12,7 26 14 SSE 1021,3 20 -
05.12.2019 20:00:00 14,8 13,0 26 14 SSE 1021,2 20 -
05.12.2019 19:00:00 14,8 13,0 22 12 SSE 1020,2 20 -
05.12.2019 18:00:00 14,8 13,0 26 14 S 1019,3 20 0
05.12.2019 17:00:00 14,8 12,7 22 12 S 1019,2 20 0
05.12.2019 16:00:00 15,4 14,0 21 11 SSE 1018,8 20 0
05.12.2019 15:00:00 15,4 14,2 28 15 SSE 1018,1 20 0
05.12.2019 14:00:00 15,4 14,1 26 14 SSE 1018,1 20 0
05.12.2019 13:00:00 16,0 13,9 28 15 SSE 1018,1 20 60
05.12.2019 12:00:00 16,0 13,0 21 11 SE 1018,1 10 0
05.12.2019 11:00:00 14,8 12,7 13 7 ESE 1018,0 10 18
05.12.2019 10:00:00 14,0 12,1 13 7 ESE 1017,3 20 0
05.12.2019 09:00:00 12,2 10,6 11 6 NE 1015,2 20 42
05.12.2019 08:00:00 12,0 11,1 16 9 NNE 1014,2 20 18
05.12.2019 07:00:00 12,0 11,1 18 10 NE 1013,6 20 0
05.12.2019 06:00:00 12,4 11,6 21 11 NE 1012,9 10 -
05.12.2019 05:00:00 12,4 11,6 16 9 NNE 1012,6 10 -
05.12.2019 04:00:00 13,6 12,8 18 10 NE 1012,2 10 -
05.12.2019 03:00:00 13,8 12,1 18 10 ESE 1012,3 10 -
05.12.2019 02:00:00 13,3 12,1 8 4 E 1011,6 10 -
05.12.2019 01:00:00 13,8 13,1 22 12 ENE 1010,9 10 -
05.12.2019 00:00:00 13,8 12,8 41 22 ENE 1010,2 10 -
04.12.2019 23:00:00 14,0 13,4 41 22 ENE 1010,1 10 -
04.12.2019 22:00:00 14,6 14,2 34 18 ENE 1010,4 10 -
04.12.2019 21:00:00 14,8 14,1 26 14 ENE 1010,1 20 -
04.12.2019 20:00:00 14,0 13,4 28 15 NNE 1009,4 20 -
04.12.2019 19:00:00 17,2 16,9 41 22 NNE 1008,8 20 0
04.12.2019 18:00:00 - - - - - - - -
04.12.2019 17:00:00 - - - - - - - -
04.12.2019 16:00:00 - - - - - - - -
04.12.2019 15:00:00 17,2 14,2 35 19 ENE 1009,5 20 0
04.12.2019 14:00:00 17,6 14,2 22 12 ENE 1009,6 20 0
04.12.2019 13:00:00 17,6 13,1 28 15 ENE 1009,8 20 0
04.12.2019 12:00:00 17,6 13,4 41 22 NE 1008,9 20 30
04.12.2019 11:00:00 16,0 10,6 42 23 NNE 1009,1 20 12
04.12.2019 10:00:00 15,8 12,0 46 25 NE 1008,9 20 0
04.12.2019 09:00:00 14,8 12,3 44 24 NE 1009,0 20 0
04.12.2019 08:00:00 14,4 11,3 46 25 NE 1009,2 20 0
04.12.2019 07:00:00 13,8 11,5 46 25 NE 1010,1 20 0
04.12.2019 06:00:00 13,4 11,8 42 23 NE 1010,4 20 -
04.12.2019 05:00:00 12,4 12,0 46 25 NE 1011,4 20 -
04.12.2019 04:00:00 12,0 11,6 44 24 NE 1012,3 20 -
04.12.2019 03:00:00 13,0 12,2 41 22 NE 1012,5 20 0
04.12.2019 02:00:00 13,2 12,1 34 18 NE 1013,6 20 0
04.12.2019 01:00:00 13,6 12,3 42 23 NE 1013,8 20 0
04.12.2019 00:00:00 14,0 12,3 41 22 NE 1014,1 20 0
03.12.2019 23:00:00 14,0 12,3 41 22 ENE 1014,1 20 -
03.12.2019 22:00:00 14,0 12,3 52 28 NE 1014,1 20 -
03.12.2019 21:00:00 14,0 13,2 44 24 NE 1014,1 20 -
03.12.2019 20:00:00 14,8 14,4 41 22 NE 1013,7 20 -
03.12.2019 19:00:00 15,0 13,7 37 20 NE 1013,1 20 0
03.12.2019 18:00:00 15,0 13,4 39 21 NE 1013,1 20 0
03.12.2019 17:00:00 15,0 14,5 29 16 NE 1013,1 20 0
03.12.2019 16:00:00 17,0 16,0 31 17 NE 1012,9 20 60
03.12.2019 15:00:00 17,0 15,4 31 17 NE 1013,1 20 60
03.12.2019 14:00:00 17,4 14,9 28 15 NE 1013,8 20 60
03.12.2019 13:00:00 17,0 14,5 24 13 NE 1013,9 20 60
03.12.2019 12:00:00 16,2 14,2 21 11 ENE 1014,9 20 60
03.12.2019 11:00:00 15,0 13,0 15 8 ENE 1014,8 20 30
03.12.2019 10:00:00 14,0 11,8 18 10 NE 1014,6 20 36
03.12.2019 09:00:00 13,2 11,5 26 14 NE 1014,1 20 0
03.12.2019 08:00:00 13,2 11,5 28 15 NE 1013,5 20 0
03.12.2019 07:00:00 13,2 11,5 26 14 NE 1013,5 20 0
03.12.2019 06:00:00 13,2 11,8 26 14 NE 1013,5 10 -
03.12.2019 05:00:00 13,2 11,8 21 11 NE 1014,3 10 -
03.12.2019 04:00:00 13,2 11,8 18 10 NE 1014,5 10 -
03.12.2019 03:00:00 13,2 11,7 15 8 NE 1014,3 20 -
03.12.2019 02:00:00 13,2 12,0 15 8 NNE 1014,4 20 -
03.12.2019 01:00:00 13,4 12,3 15 8 N 1014,5 20 -
03.12.2019 00:00:00 13,4 12,3 11 6 N 1014,5 20 -
02.12.2019 23:00:00 13,8 12,8 4 2 N 1014,2 20 -
02.12.2019 22:00:00 13,8 12,8 9 5 NNO 1014,0 20 -
02.12.2019 21:00:00 - - - - - - - -
02.12.2019 20:00:00 14,0 13,4 9 5 NNO 1013,2 20 -
02.12.2019 19:00:00 14,0 13,4 11 6 NNO 1013,1 20 0
02.12.2019 18:00:00 15,0 14,6 9 5 N 1012,7 20 0
02.12.2019 17:00:00 15,8 15,5 8 4 ONO 1012,2 20 0
02.12.2019 16:00:00 16,0 15,4 5 3 OSO 1012,2 20 0
02.12.2019 15:00:00 16,4 15,8 5 3 S 1012,3 20 0
02.12.2019 14:00:00 16,2 15,6 5 3 S 1012,8 20 24
02.12.2019 13:00:00 16,0 15,6 8 4 SSE 1013,0 20 0
02.12.2019 12:00:00 16,0 15,6 9 5 SSE 1013,0 20 0
02.12.2019 11:00:00 16,2 15,6 9 5 NE 1013,0 20 0
02.12.2019 10:00:00 16,8 15,5 13 7 S 1013,0 20 60
02.12.2019 09:00:00 16,2 15,9 15 8 S 1012,9 20 0
02.12.2019 08:00:00 16,2 15,9 28 15 S 1012,9 10 6
02.12.2019 07:00:00 16,0 15,9 15 8 S 1012,9 10 0
02.12.2019 06:00:00 - - - - - - - -
02.12.2019 05:00:00 15,4 15,1 21 11 S 1013,1 10 -
02.12.2019 04:00:00 15,8 15,4 18 10 S 1013,1 10 -
02.12.2019 03:00:00 16,2 15,9 15 8 S 1013,0 10 -
02.12.2019 02:00:00 16,6 15,8 15 8 S 1013,0 10 -
02.12.2019 01:00:00 16,6 15,0 26 14 S 1012,9 10 -
02.12.2019 00:00:00 16,6 15,3 28 15 S 1013,0 10 -
01.12.2019 23:00:00 16,4 15,6 35 19 S 1013,0 10 -
01.12.2019 22:00:00 16,6 15,8 29 16 SSE 1013,0 10 -
01.12.2019 21:00:00 16,0 15,6 26 14 S 1013,1 10 -
01.12.2019 20:00:00 16,6 15,0 37 20 SSE 1013,0 10 -
01.12.2019 19:00:00 16,6 15,8 37 20 SSE 1013,0 10 -
01.12.2019 18:00:00 16,6 15,8 31 17 SSE 1013,4 10 -
01.12.2019 17:00:00 16,6 15,0 29 16 S 1013,2 10 0
01.12.2019 16:00:00 17,4 16,5 26 14 SSE 1014,4 20 0
01.12.2019 15:00:00 17,0 13,5 41 22 SSE 1013,4 20 60
01.12.2019 14:00:00 16,8 13,4 42 23 SSE 1013,9 20 60
01.12.2019 13:00:00 16,6 12,7 50 27 SSE 1014,4 20 60
01.12.2019 12:00:00 16,4 12,2 48 26 SSE 1015,0 20 60
01.12.2019 11:00:00 15,8 12,3 26 14 SSE 1016,1 20 0

tt = Temperatura
td = dewpoint
ff = velocità del vento
dd = direzione del vento
ppp = reduced air pressure
vv = visibility
sd = ore di luce

Stazioni seguenti

WeatherPro
AMSI
MeteoEarth